Theta_e
356 357 357 356 355 354 355 355 354 354 356 357 356 356 356 355 355 355 356 356 356 357 359 359 360 361 359 359 359 359 358 358 357 356 355 354 355 352 349 348 345 345
357 357 358 357 356 356 357 357 356 355 355 356 356 356 357 357 357 356 356 357 357 357 359 360 360 360 360 359 359 359 359 358 357 357 355 355 355 354 351 350 347 344
358 358 358 358 357 357 358 358 358 356 355 355 356 356 357 357 359 359 358 357 358 358 359 359 360 359 359 359 359 360 359 358 357 356 356 355 356 355 352 351 350 345
358 358 358 358 358 357 357 358 359 358 356 356 355 357 357 357 359 359 359 358 357 358 358 359 359 359 359 358 358 360 360 359 357 356 357 356 356 356 354 352 351 349
358 359 358 358 358 358 357 356 357 358 359 358 357 357 358 359 358 359 359 358 357 358 358 358 357 358 358 357 357 359 360 360 359 357 357 357 356 356 355 352 352 352
359 359 358 358 358 358 358 356 355 356 357 359 359 359 359 360 360 359 359 359 357 357 357 357 357 357 358 358 357 358 359 360 359 358 357 357 357 357 356 354 352 351
359 359 358 358 358 358 358 357 355 354 354 356 358 359 360 360 361 361 359 359 358 358 358 357 357 357 358 359 359 359 360 360 360 359 358 357 357 357 356 355 353 352
359 359 358 358 358 358 358 356 356 355 354 354 356 359 360 359 360 361 361 360 358 358 358 358 358 359 359 359 360 359 360 361 360 359 358 358 358 358 357 355 355 354
360 359 359 359 359 358 358 357 356 355 355 355 355 357 359 360 359 360 360 360 359 358 359 359 359 359 359 360 360 360 360 360 360 359 359 358 358 358 357 356 356 355
360 360 359 359 358 358 358 357 356 356 355 355 355 355 358 360 360 359 358 360 361 359 358 358 359 360 360 361 361 361 360 360 359 359 358 358 358 358 358 357 356 355
361 361 360 359 359 358 358 357 357 357 356 355 355 356 357 359 361 361 358 359 361 361 360 358 359 360 361 361 361 361 361 360 359 359 358 359 358 357 358 357 357 356
362 361 361 360 359 358 358 358 357 357 357 356 356 356 357 358 360 361 360 358 359 360 361 360 359 359 360 361 361 361 361 360 360 359 358 359 359 358 358 358 357 357
362 362 361 360 359 358 357 357 357 357 357 358 357 356 358 358 359 360 360 359 358 358 360 361 360 359 360 361 362 361 361 361 360 359 358 358 359 359 359 358 357 357
362 362 361 360 359 358 357 356 356 356 356 357 358 357 357 358 359 360 361 360 359 358 358 360 361 361 360 361 362 361 361 361 360 360 360 359 359 359 359 359 358 358
362 362 361 360 360 359 358 357 356 356 356 356 358 358 358 358 359 360 361 361 360 359 358 359 361 362 361 361 361 361 361 360 360 360 360 360 359 359 359 358 358 358
363 362 361 360 361 360 359 358 357 358 358 357 357 358 358 358 358 359 360 361 361 360 359 359 359 361 361 361 361 360 360 360 360 360 360 360 360 360 359 359 359 359
363 362 361 361 361 361 360 359 359 358 358 358 358 359 359 359 359 359 360 361 361 361 361 360 360 360 361 361 361 360 360 360 360 361 360 360 360 360 359 360 359 359
364 362 362 361 360 361 361 360 359 359 358 358 358 359 361 361 360 360 360 360 360 360 361 361 361 360 360 360 361 361 361 360 360 360 361 361 361 360 360 359 359 360
366 364 363 363 361 360 360 360 360 358 358 358 358 360 361 362 362 361 360 360 360 361 361 361 361 361 361 360 360 361 361 361 360 360 360 361 361 361 361 360 360 360
367 366 364 364 363 361 360 360 360 359 358 358 359 359 360 362 363 362 361 361 361 361 361 361 361 361 361 361 361 361 361 361 361 360 360 360 361 361 361 361 360 360
367 367 365 365 364 363 362 361 361 361 359 359 359 359 360 361 362 362 362 361 360 361 361 362 361 361 362 362 362 362 361 362 361 361 360 360 360 360 361 361 361 360
367 367 366 366 365 364 364 362 361 362 361 360 360 359 359 359 360 361 362 362 361 361 361 361 362 362 363 363 363 363 363 363 362 361 360 360 360 359 359 360 360 360
368 367 366 366 366 366 365 364 362 362 362 361 361 360 360 360 360 360 361 362 362 362 361 361 361 362 364 364 365 365 365 364 363 361 361 360 360 359 359 359 360 360
368 368 367 367 366 366 366 365 364 363 363 363 362 361 361 360 360 360 360 361 361 362 362 362 361 361 362 364 365 366 366 366 364 363 362 361 361 361 360 360 360 360
368 368 368 368 368 367 367 367 366 365 364 364 364 363 362 361 361 361 361 361 361 361 362 362 362 362 361 362 364 365 367 367 366 364 362 362 362 362 362 361 361 361
368 369 369 369 368 368 368 368 368 367 366 366 366 365 364 363 362 361 362 361 361 361 362 362 363 363 362 362 363 364 365 366 366 364 363 362 363 363 363 362 362 361
Wind_Speed
38 37 36 35 35 35 34 34 35 34 32 31 32 32 32 32 30 29 29 30 30 29 27 26 25 26 25 23 22 21 21 21 22 22 21 21 20 18 18 16 16 18
39 38 37 35 35 34 34 35 35 36 34 32 32 31 29 30 30 29 29 29 30 29 29 28 26 25 25 25 24 22 21 22 23 23 21 22 22 20 20 19 18 19
40 39 38 37 36 36 35 34 35 36 36 34 32 31 29 28 29 30 29 29 30 30 30 30 28 26 26 26 26 24 23 23 23 24 22 22 23 22 21 21 19 20
41 40 40 39 38 38 36 34 33 34 35 35 33 32 31 30 29 29 29 29 30 31 31 32 31 29 28 27 27 27 26 25 24 24 23 23 23 23 23 22 21 21
43 42 41 40 39 38 37 35 34 33 33 34 34 33 32 32 32 31 30 31 32 32 32 33 32 31 30 29 29 29 29 28 26 25 25 24 24 25 24 23 23 23
42 42 42 41 40 39 37 37 37 36 34 33 34 34 33 32 33 34 33 33 33 34 33 33 33 33 32 31 31 31 31 31 30 28 28 27 26 26 25 25 25 24
40 42 42 41 41 40 39 38 38 37 37 35 34 34 34 33 33 34 35 35 34 34 35 34 34 34 33 33 33 33 32 31 31 30 30 29 28 28 27 26 26 26
40 42 42 41 40 39 39 39 38 38 38 37 35 34 35 35 34 34 35 36 36 35 35 35 35 35 34 34 34 34 34 32 32 31 32 31 30 30 30 29 28 29
39 40 40 40 39 38 39 39 39 39 38 37 37 36 35 36 37 35 34 35 37 36 35 35 36 36 36 35 36 36 35 35 34 33 33 33 33 32 32 31 31 30
39 39 40 40 39 39 39 39 38 38 38 38 38 37 36 36 37 37 35 34 36 37 37 37 36 37 37 37 37 37 37 37 36 35 35 35 35 35 34 34 34 33
40 39 39 40 41 40 39 39 38 37 38 38 38 37 37 36 36 37 38 36 36 38 39 39 39 38 38 38 38 38 38 38 38 37 36 36 37 37 36 36 36 36
41 40 40 41 42 41 40 39 38 37 37 38 39 38 37 37 37 37 39 39 39 39 39 41 41 40 40 40 39 39 39 39 39 38 38 38 38 38 38 38 38 38
42 42 42 42 43 42 41 40 39 39 38 38 39 39 38 37 38 38 39 41 42 41 40 41 41 41 41 41 40 39 39 39 39 40 39 39 39 39 39 39 39 39
43 43 43 43 42 42 41 41 40 40 39 38 39 40 40 39 38 39 40 41 42 43 42 41 41 42 41 41 41 40 40 40 40 40 40 40 39 40 40 40 41 41
42 42 43 42 41 41 42 42 41 41 40 39 39 40 41 40 39 39 39 40 41 42 42 42 41 42 42 42 43 42 41 41 41 41 41 40 40 40 40 41 42 42
42 41 41 41 41 41 42 42 41 41 41 40 40 40 40 40 40 39 39 40 40 41 42 42 42 42 43 44 45 44 43 42 41 42 42 42 41 40 40 41 42 42
40 40 40 41 42 41 42 42 42 41 41 40 40 39 40 40 40 40 39 39 40 41 42 42 43 43 44 45 47 46 45 43 41 41 42 42 41 40 40 41 41 42
39 40 39 40 41 41 41 42 42 41 40 40 40 39 39 39 40 41 41 40 40 41 42 43 44 45 45 46 47 48 47 45 42 40 40 40 41 41 41 40 40 41
40 40 40 39 40 41 41 41 41 40 40 40 40 40 39 39 41 42 42 41 41 42 43 44 44 45 47 47 47 48 48 47 44 41 40 40 40 41 41 40 39 39
41 40 40 40 40 40 39 39 39 39 40 40 39 39 39 39 41 42 42 43 42 42 43 44 44 45 46 47 48 48 48 49 48 44 41 40 40 41 40 40 40 39
41 41 40 40 39 39 38 38 37 38 39 39 37 38 39 40 40 41 42 43 43 42 41 42 43 44 44 46 47 47 47 49 49 46 42 41 40 40 40 40 40 40
40 40 39 39 38 37 38 37 37 37 37 37 36 36 38 39 39 39 40 41 42 41 40 41 41 41 41 43 44 45 46 47 48 47 44 42 41 40 40 40 40 40
38 39 38 38 37 37 37 37 37 37 36 36 35 34 34 35 37 37 37 38 39 40 41 41 39 37 37 39 40 42 43 45 46 46 44 44 43 40 39 39 39 40
36 38 38 37 37 37 36 35 35 35 35 34 34 34 33 33 34 34 35 36 36 38 39 40 38 35 33 33 35 37 40 43 44 44 44 44 42 39 39 39 39 40
36 36 37 37 36 36 35 34 34 33 33 33 33 33 33 32 31 31 32 34 35 36 36 37 36 35 33 32 32 32 36 40 42 42 42 41 38 37 38 39 40 40
35 35 36 36 35 34 33 33 32 31 31 32 32 31 31 31 31 31 31 32 33 34 34 35 34 33 33 33 32 31 32 36 40 41 40 36 35 36 37 38 39 39
Wind_Direction
200 200 200 200 200 200 200 200 200 200 203 204 204 206 208 209 209 208 211 214 215 214 215 215 215 216 215 214 217 218 217 215 214 215 214 216 220 215 210 213 212 206
200 201 202 201 201 201 201 202 202 201 204 205 205 205 206 208 208 209 210 213 215 214 214 215 216 217 217 214 214 218 218 213 212 215 215 217 220 218 212 212 216 214
201 201 202 202 202 202 202 202 202 203 204 206 207 208 208 207 207 209 210 212 215 215 214 214 216 218 219 217 215 216 217 214 213 214 216 218 219 220 216 213 217 219
201 202 203 204 204 204 203 202 201 202 204 206 208 209 210 210 209 210 211 212 215 216 215 214 215 216 218 219 217 216 216 217 215 214 216 218 219 222 219 215 218 221
202 202 203 205 205 205 204 203 203 202 203 205 207 208 209 210 211 211 212 213 214 215 215 214 214 215 217 219 219 218 217 217 216 214 214 216 217 221 222 218 219 223
203 203 204 205 206 206 205 205 205 205 205 206 207 207 208 209 211 212 212 213 213 214 214 214 214 214 215 217 218 218 218 217 216 214 214 217 217 220 223 219 220 224
206 205 205 206 206 206 207 207 207 207 208 209 208 208 208 208 210 212 212 213 213 213 213 213 213 212 213 215 215 217 218 217 217 215 214 217 217 219 221 219 219 225
208 207 207 207 207 207 208 209 209 209 210 210 210 210 209 209 210 211 212 212 212 213 213 212 212 212 212 214 214 215 216 217 216 215 215 216 216 217 218 218 219 223
210 209 208 208 208 208 208 209 210 210 210 210 210 211 211 211 211 211 212 211 211 211 212 211 212 212 213 214 215 215 215 216 216 216 216 216 216 217 217 216 217 220
211 210 209 209 209 209 210 210 210 211 210 211 211 211 211 212 212 212 212 212 211 211 211 211 212 213 213 214 215 216 216 216 216 216 217 218 217 218 217 215 216 218
211 210 209 209 209 210 210 210 210 211 211 211 211 211 211 212 212 211 212 213 213 212 212 212 213 214 214 214 216 217 217 217 217 216 217 219 220 220 218 216 216 217
209 209 209 209 210 210 210 210 210 210 211 210 211 211 211 212 212 212 212 213 214 215 214 214 214 215 215 216 216 216 217 218 218 218 218 219 221 222 221 219 218 218
208 209 209 209 210 209 209 210 210 210 210 210 211 211 211 212 212 213 213 214 215 216 216 216 216 215 216 217 216 216 216 217 218 219 219 220 221 223 223 222 221 220
208 209 209 209 209 209 208 209 210 210 210 211 211 211 211 212 213 213 214 215 216 217 218 218 217 217 216 217 217 216 216 217 218 219 220 221 222 223 224 224 224 223
209 209 209 209 208 208 208 209 209 210 210 211 211 211 212 213 214 215 215 215 217 218 219 219 218 218 218 217 217 217 217 217 218 219 220 221 222 223 224 224 225 224
209 209 208 208 208 208 208 208 209 209 209 210 211 212 212 213 214 215 216 216 217 218 219 220 220 220 220 219 219 218 217 217 218 219 221 221 222 222 223 224 225 225
207 208 208 208 208 208 208 208 208 208 209 209 210 211 212 212 213 214 216 217 217 218 219 220 221 222 222 222 222 221 219 219 219 220 221 222 223 223 223 224 225 226
205 206 207 208 208 208 208 208 208 208 208 209 209 210 211 211 212 214 215 217 218 219 220 222 223 224 223 223 223 223 222 221 221 222 223 223 224 224 225 225 225 226
203 204 206 208 208 209 209 209 208 208 209 209 209 209 209 210 212 214 215 216 217 219 221 223 224 225 225 225 224 224 224 223 224 224 225 226 226 227 227 227 227 227
201 202 204 206 208 209 209 209 209 209 210 210 210 209 209 211 213 214 215 217 218 219 222 224 225 226 226 226 225 225 225 225 226 227 228 229 230 230 229 229 229 228
199 201 202 204 206 207 208 209 210 210 211 211 210 210 211 212 213 215 217 218 219 220 222 225 227 227 227 227 226 226 226 226 227 228 230 232 233 233 233 232 232 231
199 199 201 203 203 204 206 207 209 211 212 212 212 213 214 215 216 217 219 220 221 222 224 227 229 229 228 228 228 227 227 227 227 229 231 234 236 237 236 236 236 235
199 199 200 201 201 202 205 206 207 210 211 211 212 214 216 218 219 220 222 223 224 224 226 229 231 230 230 230 229 227 226 226 226 228 232 235 237 238 239 240 240 238
200 200 199 200 201 202 204 205 207 209 210 211 212 214 217 220 222 224 225 227 228 228 229 232 233 233 233 232 231 229 227 226 225 227 231 234 237 239 241 242 242 242
201 201 200 200 201 202 203 204 205 207 209 210 212 215 218 221 223 226 228 229 231 232 233 235 236 236 236 236 235 232 229 227 225 225 229 232 235 238 241 243 244 244
200 201 201 201 201 202 202 203 204 205 206 208 211 214 217 220 222 225 228 230 232 234 235 237 238 238 237 238 238 236 233 230 226 225 228 231 233 237 240 242 244 245